Home   Weather   Ulaanbaatar   Past weeks

Flag for Mongolia Past Weather in Ulaanbaatar, Mongolia — Yesterday and Last 2 Weeks

Now
1 °F

Clear.


Feels Like: -6 °F
Forecast: -5 / 28 °F
Wind: 3 mph from South

Location: Ulan-Bator

Current Time: Feb 23, 2017 at 9:54:32 pm

Latest Report: Feb 23, 2017 at 9:30 pm


Visibility: 10 mi

Pressure: 30.21 "Hg (25.41 "Hg at 1298m altitude)

Humidity: 78%

Dew Point: -4 °F

Location of UlaanbaatarLocation

Past Weather in Ulaanbaatar — Graph

°F

Ulaanbaatar Temperature Yesterday

Maximum temperature yesterday: 14 °F (at 2:30 pm)
Minimum temperature yesterday: -11 °F (at 5:30 am)
Average temperature yesterday: 0 °F

High & Low Weather Summary for the Past Weeks

 TemperatureHumidityPressure
High30 °F (Feb 13, 4:00 pm)92% (Feb 14, 6:30 am)30.42 "Hg (Feb 14, 6:30 am)
Low-27 °F (Feb 9, 8:00 am)47% (Feb 13, 4:00 pm)29.53 "Hg (Feb 18, 3:00 pm)
Average0 °F71%30.13 "Hg
* Reported Feb 8 8:00 pm — Feb 23 8:30 pm, Ulaanbaatar, Weather by CustomWeather, © 2017

Note: Actual official high and low records may vary slightly from our data, if they occured in-between our weather recording intervals... More about our weather records

Advertising

Ulaanbaatar Weather History for the Previous 24 Hours

Scroll right to see more
 ConditionsComfort  
Time TempWeatherWind HumidityBarometerVisibility
8:30 pm
Thu, Feb 23
3 °FPassing clouds.6 mph78%30.18 "HgN/A
8:00 pm5 °FClear.6 mph78%30.18 "Hg10 mi
7:30 pm5 °FClear.3 mph78%30.18 "Hg10 mi
7:00 pm10 °FSunny.3 mph72%30.18 "Hg10 mi
6:30 pm14 °FSunny.3 mph73%30.18 "Hg10 mi
6:00 pm18 °FSunny.3 mph68%30.15 "Hg10 mi
5:30 pm19 °FSunny.6 mph68%30.15 "Hg10 mi
5:00 pm19 °FSunny.3 mph63%30.15 "Hg10 mi
4:30 pm19 °FSunny.3 mph63%30.15 "Hg10 mi
4:00 pm18 °FSunny.6 mph68%30.15 "Hg10 mi
3:30 pm19 °FSunny.3 mph58%30.15 "Hg10 mi
3:00 pm18 °FSunny.6 mph58%30.15 "Hg10 mi
2:30 pm18 °FPassing clouds.6 mph62%30.15 "HgN/A
2:00 pm21 °FSunny.No wind54%30.15 "Hg10 mi
1:30 pm18 °FClear.No wind58%30.18 "Hg5 mi
1:00 pm16 °FClear.No wind57%30.18 "Hg4 mi
12:30 pm10 °FScattered clouds.1 mph67%30.18 "Hg4 mi
12:00 pm9 °FScattered clouds.No wind61%30.18 "Hg3 mi
11:30 am5 °FScattered clouds.3 mph66%30.21 "Hg3 mi
11:00 am3 °FPartly sunny.1 mph66%30.21 "Hg3 mi
10:30 am1 °FPartly sunny.1 mph65%30.21 "Hg3 mi
10:00 am0 °FPartly sunny.1 mph71%30.21 "Hg3 mi
9:30 am-4 °FPartly sunny.1 mph77%30.21 "Hg3 mi
9:00 am-8 °FScattered clouds.No wind77%30.21 "Hg4 mi
8:30 am-9 °FPassing clouds.No wind77%30.21 "Hg5 mi
8:00 am-11 °FPassing clouds.1 mph76%30.21 "Hg5 mi
7:30 am-11 °FPassing clouds.1 mph76%30.18 "Hg5 mi
7:00 am-13 °FClear.No wind76%30.18 "Hg10 mi
6:30 am-9 °FClear.No wind77%30.18 "Hg10 mi
6:00 am-13 °FClear.1 mph76%30.18 "Hg10 mi
5:30 am-13 °FClear.1 mph76%30.18 "Hg10 mi
5:00 am-13 °FClear.1 mph69%30.21 "Hg10 mi
4:00 am-13 °FClear.1 mph76%30.21 "Hg10 mi
3:00 am-13 °FClear.No wind76%30.21 "Hg10 mi
2:00 am-9 °FClear.No wind77%30.21 "Hg10 mi
1:30 am-9 °FClear.1 mph70%30.21 "Hg10 mi
1:00 am-9 °FClear.1 mph77%30.21 "Hg10 mi
12:00 am-9 °FClear.3 mph77%30.21 "Hg10 mi
11:30 pm
Wed, Feb 22
-8 °FClear.1 mph77%30.18 "Hg10 mi
11:00 pm-6 °FClear.3 mph77%30.18 "Hg10 mi
10:30 pm-6 °FClear.6 mph77%30.18 "Hg10 mi
10:00 pm-8 °FClear.6 mph77%30.18 "Hg10 mi
9:30 pm-6 °FPassing clouds.6 mph77%30.18 "HgN/A
9:00 pm-2 °FClear.1 mph71%30.18 "Hg10 mi
Weather by CustomWeather, © 2017

See weather overviewHow to use our weather pages